Location: Bucksport
(44.6167°N, 68.8000°W)
Time: 12:01:11
(UTC-04:00)

N. Korean satellite - Visible Passes

Search period start: 21 October 2019 00:00
Search period end: 31 October 2019 00:00
Orbit: 455 x 508 km, 97.2° (Epoch: 20 October)

Date Brightness Start Highest point End Pass type
(mag) Time Alt. Az. Time Alt. Az. Time Alt. Az.
21 Oct 10.4 18:53:20 10° WSW 18:54:23 11° W 18:55:27 10° WNW visible
22 Oct 7.8 06:15:01 10° NNE 06:18:33 47° E 06:22:06 10° S visible
22 Oct 9.5 18:26:08 10° SSW 18:28:52 22° W 18:31:38 10° NW visible
23 Oct 9.3 05:50:09 10° NE 05:53:09 24° E 05:56:09 10° SSE visible
24 Oct 10.3 05:26:03 10° ENE 05:27:39 12° E 05:29:14 10° ESE visible
25 Oct 10.1 18:44:34 10° SW 18:46:26 14° W 18:48:20 10° WNW visible
26 Oct 8.3 06:07:13 10° NNE 06:10:41 38° E 06:14:09 10° SSE visible
26 Oct 9.0 18:17:57 10° SSW 18:20:56 27° W 18:23:59 10° NW visible
27 Oct 9.7 05:42:29 10° NE 05:45:14 20° E 05:47:59 10° SE visible
28 Oct 10.6 05:19:21 10° E 05:19:42 10° E 05:20:04 10° E visible
29 Oct 7.2 06:24:28 10° NNE 06:28:09 65° E 06:31:50 10° S visible
29 Oct 9.9 18:36:05 10° SW 18:38:27 17° W 18:40:51 10° NW visible
30 Oct 8.8 05:59:26 10° NNE 06:02:46 31° E 06:06:06 10° SSE visible
30 Oct 8.5 18:09:46 10° SSW 18:12:58 34° W 18:16:13 10° NNW visible
